Location: Unspecified
(40.7945°N, 111.1337°W)
Time: 06:44:00
(UTC-07:00)

Okean 3 - Visible Passes

Search period start: 19 November 2018 00:00
Search period end: 29 November 2018 00:00
Orbit: 578 x 601 km, 82.5° (Epoch: 18 November)

Date Brightness Start Highest point End Pass type
(mag) Time Alt. Az. Time Alt. Az. Time Alt. Az.
21 Nov 6.4 06:46:29 10° NE 06:48:38 13° ENE 06:50:47 10° E visible
27 Nov 6.5 05:57:39 10° NE 05:59:31 12° ENE 06:01:22 10° E visible
28 Nov 6.3 06:04:43 10° NNE 06:07:42 18° ENE 06:10:40 10° ESE visible
